www.pogodaiklimat.ru

Погода и климат >> Архив погоды >> Россия >> Красноярский край >> Игарка


ПОГОДА в Игарке

  • Прогноз погоды в Игарке
  • Монитор погоды в Игарке
  • Климат города

АРХИВ ПОГОДЫ в Игарке

Время (UTC), дата Ветер
(напр.,м/с)
 
Видим.   Явления Облачность Т
(С)
Тd
(С)
f
(%)
Тe
(С)
Тes
(С)
Комфортность P
(гПа)
Po
(гПа)
Тmin
(С)
Tmax
(С)
R
(мм)
R24
(мм)
S
(см)
00 11.11 Ю 3 10 км слабый снег 9/3 600 м
[Sc Ac trans Cs]
-30.5 -33.0 79 -40 -40 опасность
обморожения
1017.7 1013.7 -31.5 0.2 19
03 11.11 Ю 7
{12}
10 км слабый снег {метель} 9/3 600 м
[Sc Ac trans Cs]
-29.8 -32.2 80 -44 -44 опасность
обморожения
1015.1 1011.1
06 11.11 Ю 8
{16}
4000 м снег {метель} 9/3 600 м
[Sc Ac As]
-27.5 -30.0 79 -42 -42 опасность
обморожения
1010.4 1006.5
09 11.11 Ю 6
{17}
2000 м снег {метель} 10/3 300 м
[Frnb As op]
-24.4 -26.9 80 -37 -37 опасность
обморожения
1005.4 1001.5
12 11.11 Ю 6
{17}
2000 м снег {метель} 10/10 300 м
[Frnb Ns]
-22.8 -25.3 80 -34 -34 опасность
обморожения
1003.8 999.9 -22.6 3
15 11.11 ЮВ 6
{14}
2000 м 10/10 300 м
[Frnb Ns]
-22.0 -24.6 79 -33 -33 опасность
обморожения
1002.4 998.6
18 11.11 ЮВ 5
{14}
4000 м 10/10 300 м
[Frnb Ns]
-20.9 -23.4 80 -31 -31 опасность
обморожения
1002.0 998.2
21 11.11 В 2 10 км {снег} 9/3 1000 м
[Sc As trans]
-22.8 -25.3 80 -29 -29 1002.9 999.0
00 12.11 СВ 2 10 км {снег} 3/3 1000 м
[Sc]
-24.8 -27.3 80 -31 -31 опасность
обморожения
1003.6 999.7 -24.9 3 19
03 12.11 С 2 20 км 4/1 1000 м
[Sc Ci fib]
-25.0 -27.4 80 -32 -32 опасность
обморожения
1004.9 1001.0 -25.3
06 12.11 С 1 10 км 9/3 1000 м
[Sc Ac trans Cs]
-21.6 -23.4 85 -25 -25 1005.7 1001.9
09 12.11 СВ 1 10 км слабый снег 9/4 1000 м
[Sc Ac trans Cs]
-20.6 -22.5 85 -24 -24 1007.5 1003.7
12 12.11 С 2 10 км слабый снег 9/4 600 м
[Sc Ac trans Cs]
-21.0 -22.9 85 -27 -27 1009.3 1005.5 -20.4 0.3
15 12.11 С 2 10 км {снег} 9/0
[Ac trans Cs]
-22.4 -24.2 85 -29 -29 1011.4 1007.6
18 12.11 С 2 10 км {снег} 9/0
[Ac trans Cs]
-24.0 -25.9 84 -30 -30 1013.4 1009.5
21 12.11 С 2 10 км 6/0
[Ac trans Ci fib]
-25.3 -27.8 80 -32 -32 опасность
обморожения
1015.4 1011.5
00 13.11 З 1 10 км 4/0
[Ci fib]
-29.8 -32.2 80 -34 -34 опасность
обморожения
1016.8 1012.8 -29.8 0.0 19
03 13.11 штиль 0 20 км 1/0
[Ci fib]
-33.4 -35.6 80 -33 -33 опасность
обморожения
1017.7 1013.6 -33.6
06 13.11 штиль 0 20 км 4/0
[Ci fib]
-29.8 -32.2 80 -30 -30 1017.5 1013.5
09 13.11 ЮВ 1 20 км 9/0
[Ac trans Ci fib]
-26.9 -29.3 80 -31 -31 опасность
обморожения
1016.3 1012.4
12 13.11 ЮВ 4
{10}
10 км 9/0
[Ac trans Ci fib]
-24.1 -26.7 79 -34 -34 опасность
обморожения
1014.3 1010.4 -24.0
15 13.11 ЮВ 6
{12}
10 км слабый снег {метель} 9/5 1500 м
[Sc As op]
-22.0 -23.9 84 -33 -33 опасность
обморожения
1011.1 1007.3
18 13.11 Ю 8
{15}
4000 м слабый снег {метель} 9/8 600 м
[Sc As op]
-20.2 -22.1 85 -33 -33 опасность
обморожения
1007.5 1003.7
21 13.11 Ю 8
{16}
2000 м снег {метель} 9/8 600 м
[Sc As op]
-19.2 -21.1 85 -31 -31 опасность
обморожения
1003.3 999.5
00 14.11 Ю 9
{16}
2000 м снег {метель} 10/10 200 м
[Frnb Ns]
-17.2 -19.1 85 -29 -29 1000.1 996.4 -24.3 4 16
03 14.11 Ю 6
{14}
4000 м слабый снег {метель} 10/10 200 м
[Frnb Ns]
-14.1 -15.4 90 -23 -23 997.7 994.0
06 14.11 Ю 4
{14}
2000 м снег {метель} 10/10 200 м
[Frnb Ns]
-10.8 -12.1 90 -18 -18 996.9 993.3
09 14.11 В 1 4000 м слабый снег {метель} 10/10 300 м
[Frnb Ns]
-9.1 -10.2 92 -11 -11 998.2 994.6
12 14.11 СВ 1 10 км слабый снег 9/6 1000 м
[Sc As op]
-9.8 -11.0 91 -12 -12 999.2 995.6 -9.0 5
15 14.11 С 1 10 км слабый снег 9/6 1000 м
[Sc As op]
-10.7 -12.0 90 -13 -13 999.7 996.1
18 14.11 С 3 10 км слабый снег 9/8 200 м
[Frnb As op]
-9.4 -10.6 91 -15 -15 1000.5 996.9
21 14.11 СЗ 1 10 км {снег} 9/3 1000 м
[Sc Cs]
-14.6 -15.9 90 -17 -17 1002.8 999.1
00 15.11 СЗ 4 10 км {снег} 9/3 1000 м
[Sc Cs]
-18.6 -20.5 85 -27 -27 1004.6 1000.8 -19.0 24
03 15.11 СЗ 2 20 км {снег} 9/0
[Ac trans Cs]
-19.8 -21.7 85 -26 -26 1005.9 1002.1 -20.4
06 15.11 СЗ 5 20 км в посл. час снег 9/0
[Ac trans Cs]
-20.0 -21.9 85 -30 -30 1008.3 1004.5
09 15.11 СЗ 3 20 км {снег} 9/0
[Ac trans Cs]
-19.5 -21.4 85 -27 -27 1011.1 1007.3
12 15.11 СЗ 4 20 км {снег} 9/0
[Ac trans Cs]
-18.3 -20.2 85 -27 -27 1014.5 1010.7 -18.1 0.2
15 15.11 СЗ 5 10 км 9/0
[Cs]
-20.2 -22.1 85 -30 -30 1018.0 1014.2
18 15.11 СЗ 3 10 км 9/0
[Cs]
-21.9 -23.8 85 -30 -30 1021.2 1017.4
21 15.11 СЗ 2 10 км 9/0
[Ac trans Cs]
-21.7 -23.5 85 -28 -28 1023.4 1019.5
00 16.11 штиль 0 10 км слабый снег 9/0
[Ac trans Cs]
-26.4 -28.2 85 -26 -26 1025.1 1021.2 -26.4 0.0 24
03 16.11 штиль 0 10 км слабый снег 9/4 600 м
[Sc Ac trans Cs]
-26.5 -28.4 84 -27 -27 1026.0 1022.1 -30.0
06 16.11 штиль 0 10 км слабый снег 9/6 300 м
[Sc Ac As]
-20.9 -22.8 85 -21 -21 1026.0 1022.1
09 16.11 Ю 2 10 км слабый ливневой снег 9/8 300 м
[Cb cap Ac cuf]
-17.3 -18.5 90 -23 -23 1026.2 1022.4
12 16.11 ЮВ 2 10 км слабый снег {ливн. осадки} 9/6 600 м
[Sc diur, vesp As op]
-16.0 -17.3 90 -21 -21 1026.1 1022.3 -15.8 1
15 16.11 ЮВ 2 10 км слабый снег 9/4 1000 м
[Sc As op]
-15.5 -16.8 90 -21 -21 1025.7 1021.9
18 16.11 ЮВ 2 10 км слабый снег 9/6 1000 м
[Sc As op]
-16.2 -17.5 90 -21 -21 1025.5 1021.7
21 16.11 ЮВ 2 10 км слабый снег 9/6 300 м
[Sc As op]
-16.7 -18.0 90 -22 -22 1024.8 1021.0
00 17.11 ЮВ 3 10 км слабый снег 9/6 300 м
[Sc As op]
-15.5 -16.8 90 -22 -22 1023.9 1020.1 -17.1 0.9 27
03 17.11 ЮВ 3 10 км слабый снег 9/6 300 м
[Sc As op]
-15.3 -16.6 90 -22 -22 1022.6 1018.8
06 17.11 Ю 6 10 км слабый снег 9/4 600 м
[Sc Ac As]
-14.3 -15.6 90 -24 -24 1021.2 1017.4
09 17.11 Ю 5
{10}
10 км слабый снег {метель} 9/4 1000 м
[Sc As op]
-14.0 -15.3 90 -23 -23 1019.6 1015.8
12 17.11 Ю 6
{12}
10 км слабый снег {метель} 9/6 300 м
[Sc As op]
-13.2 -14.5 90 -22 -22 1018.2 1014.4 -13.0 0.5
15 17.11 Ю 5
{10}
10 км слабый снег {метель} 9/8 300 м
[Sc As op]
-12.8 -14.1 90 -21 -21 1016.6 1012.8
18 17.11 Ю 5
{10}
2000 м снег {метель} 9/8 300 м
[Frnb As op]
-12.6 -13.9 90 -21 -21 1015.2 1011.5

 

Местоположение метеостанции Игарка (Красноярский край, Россия): широта 67.47 долгота 86.57 высота над уровнем моря 28 м.

В архиве по умолчанию представлена погода в Игарке за последнюю неделю. Архивные данные за месяц целиком и за предыдущие месяцы, начиная с января 2011 года, Вы можете получить, выбрав интересующий диапазон дат из раскрывающегося списка и нажав кнопку "Ввод!".


*Определитесь, кто Вы:
робот инопланетянин человек

Внимание! Время в таблицах - всемирное. Для получения местного времени необходимо прибавить поправку, которая в Игарке равна 7 ч.

Смотрите также архив погоды в соседних городах и на ближайших метеорологических станциях:

Погода в Горбиачине (Красноярский край, Россия) (54 км)
Погода в Снежногорске (Красноярский край, Россия) (86 км)
Погода в Светлогорске (Красноярский край, Россия) (98 км)
Погода в Курейке (Красноярский край, Россия) (115 км)
Погода в Потапово (Красноярский край, Россия) (134 км)
Погода в Советской Речке (Красноярский край, Россия) (140 км)
Погода в Туруханске (Красноярский край, Россия) (197 км)
Погода в Норильске (Красноярский край, Россия) (219 км)
Погода в Большом Пороге (Эвенкия, Россия) (256 км)
Погода в Красноселькупске (Ямало-Ненецкий АО, Россия) (268 км)

Пояснения к столбцам:

Ветер - указаны скорость ветра в м/с - средняя за 10 мин, порывы в срок и между сроками (в фигурных скобках) и направление, откуда дует ветер: С - северный, СВ - северо-восточный, В - восточный, ЮВ - юго-восточный, Ю - южный, ЮЗ - юго-западный, З - западный, СЗ - северо-западный.
Видимость - горизонтальная дальность видимости в метрах или километрах. При видимости от 1 до 10 км при отсутствии осадков обычно наблюдается дымка, при ухудшении видимости до 1 км и менее - туман. В сухую погоду видимость может ухудшаться дымом, пылью или мглою.
Явления - указаны атмосферные явления, наблюдавшиеся в срок или в последний час перед сроком; фигурными скобками обозначены явления, наблюдавшиеся между сроками (за 1-3 часа до срока); квадратными скобками обозначены град или гололедные отложения с указанием их диаметра в мм.
Облачность - указаны через наклонную черту общая и нижняя облачность в баллах и высота нижней границы облаков в метрах; квадратными скобками обозначены формы облаков: Ci - перистые, Cs - перисто-слоистые, Cc - перисто-кучевые, Ac - высококучевые, As - высокослоистые, Sc - слоисто-кучевые, Ns - слоисто-дождевые, Cu - кучевые, Cb - кучево-дождевые. Подробнее классификацию облаков см. в Атласе облаков (PDF).
T - Температура воздуха - температура, измеренная на высоте 2 м над землей.
Td - Температура точки росы - температура, при понижении до которой содержащийся в воздухе водяной пар достигнет насыщения.
f - Относительная влажность воздуха - влажноcть воздуха, измеренная на высоте 2 м над землей.
Te - Эффективная температура - температура, которую ощущает одетый по сезону человек в тени. Характеристика душности погоды. При расчете учитывается влияние влажности воздуха и скорости ветра на теплоощущения человека.
Tes - Эффективная температура на солнце - температура, которую ощущает человек, с поправкой на солнечный нагрев. Характеристика знойности погоды. Зависит от высоты солнца над горизонтом, облачности и скорости ветра. Ночью, в пасмурную погоду, а также при ветре 12 м/с и более поправка равна нулю.
P - Атмосферное давление - приведенное к уровню моря атмосферное давление.
Po - Атмосферное давление - измеренное на уровне метеостанции атмосферное давление.
Tmin - Минимальная температура - минимум температуры воздуха на высоте 2 м над землей.
Tmax - Максимальная температура - максимум температуры воздуха на высоте 2 м над землей.
R - Количество осадков - Количество выпавших осадков за период времени, мм. При наведении курсора мыши на число - период времени, за который выпало указанное количество осадков.
R24 - Количество осадков - Количество выпавших осадков за 24 часа, мм.
S - Снежный покров - Высота снежного покрова, см. При наведении курсора мыши на число - состояние снежного покрова и степень покрытия местности в баллах.